Temp
-13 -14 -13 -13 -13 -12 -12 -11 -11 -10 -10 -11 -10 -10 -10 -10 -10 -10 -9 -9 -9 -9 -9 -9 -9 -9 -9 -9 -9 -9 -9 -9 -9 -9 -9 -9 -8 -8 -8 -8 -8 -8 -8 -8 -8 -8 -8 -8 -8
-14 -14 -13 -14 -13 -12 -12 -11 -11 -11 -10 -10 -11 -11 -11 -11 -10 -10 -9 -10 -10 -10 -10 -9 -9 -9 -9 -9 -9 -9 -9 -9 -9 -9 -9 -9 -9 -9 -8 -8 -8 -8 -8 -8 -8 -8 -8 -9 -9
-14 -13 -13 -14 -13 -12 -13 -11 -11 -11 -11 -10 -10 -10 -10 -11 -11 -10 -10 -10 -10 -10 -10 -10 -9 -9 -9 -9 -9 -9 -9 -9 -9 -9 -9 -9 -9 -9 -9 -8 -8 -8 -8 -8 -8 -8 -8 -9 -9
-13 -14 -13 -13 -13 -13 -12 -11 -10 -10 -10 -10 -10 -10 -10 -10 -10 -10 -10 -10 -10 -10 -10 -10 -10 -10 -9 -9 -10 -9 -9 -9 -9 -9 -9 -9 -9 -9 -9 -9 -9 -9 -8 -8 -8 -9 -9 -9 -9
-14 -13 -13 -13 -12 -12 -11 -11 -11 -11 -11 -10 -10 -10 -10 -10 -10 -10 -10 -10 -10 -10 -10 -10 -10 -10 -10 -10 -10 -10 -9 -9 -9 -9 -10 -10 -10 -9 -9 -9 -9 -9 -9 -9 -9 -9 -9 -9 -9
-12 -13 -13 -12 -12 -12 -12 -11 -12 -11 -11 -11 -11 -11 -10 -10 -10 -11 -10 -11 -11 -11 -11 -11 -10 -10 -10 -10 -10 -10 -10 -10 -10 -9 -10 -10 -10 -10 -10 -10 -10 -9 -9 -9 -9 -9 -10 -10 -10
-12 -12 -12 -12 -12 -12 -11 -11 -11 -12 -12 -12 -12 -11 -10 -11 -11 -11 -11 -11 -11 -11 -11 -11 -11 -11 -10 -10 -10 -11 -11 -10 -10 -10 -10 -10 -10 -10 -10 -10 -10 -10 -10 -10 -10 -10 -10 -10 -10
-11 -11 -11 -11 -12 -12 -12 -11 -11 -12 -12 -11 -11 -11 -11 -11 -11 -10 -11 -11 -12 -12 -11 -11 -11 -11 -11 -11 -11 -11 -11 -11 -11 -11 -11 -11 -10 -10 -10 -10 -10 -10 -10 -10 -10 -10 -10 -10 -10
-11 -11 -11 -12 -12 -11 -11 -12 -11 -11 -11 -11 -11 -11 -10 -11 -11 -12 -12 -12 -11 -11 -11 -11 -11 -11 -11 -11 -11 -11 -11 -11 -11 -11 -11 -11 -11 -11 -11 -10 -10 -10 -10 -10 -10 -10 -10 -10 -10
-11 -11 -11 -11 -11 -11 -12 -11 -12 -12 -11 -12 -11 -11 -10 -12 -12 -11 -12 -12 -11 -11 -11 -11 -11 -12 -12 -11 -11 -11 -11 -11 -11 -12 -12 -12 -11 -11 -11 -11 -10 -10 -10 -10 -10 -10 -10 -11 -11
-12 -12 -12 -12 -12 -12 -12 -12 -12 -12 -12 -12 -12 -12 -11 -11 -11 -11 -12 -12 -13 -12 -12 -12 -11 -12 -12 -11 -11 -11 -11 -11 -11 -11 -12 -12 -12 -11 -11 -11 -11 -11 -11 -11 -11 -11 -11 -11 -11
-12 -12 -12 -12 -12 -12 -12 -12 -12 -12 -12 -12 -12 -12 -12 -12 -12 -11 -11 -12 -12 -12 -13 -12 -12 -12 -12 -12 -12 -11 -11 -11 -11 -11 -11 -12 -12 -12 -11 -12 -12 -11 -11 -11 -11 -11 -11 -11 -11
-12 -12 -12 -12 -12 -12 -12 -12 -12 -12 -12 -12 -12 -12 -12 -12 -12 -12 -12 -12 -12 -12 -12 -12 -12 -12 -11 -12 -12 -12 -12 -12 -11 -11 -11 -11 -11 -12 -12 -12 -11 -11 -11 -11 -12 -12 -11 -11 -11
-12 -12 -12 -12 -12 -12 -12 -12 -12 -12 -11 -12 -12 -12 -12 -12 -12 -12 -12 -12 -12 -12 -12 -12 -12 -12 -12 -12 -12 -12 -13 -12 -12 -12 -11 -11 -11 -11 -11 -11 -11 -11 -11 -12 -12 -12 -11 -12 -12
-13 -13 -13 -12 -12 -12 -12 -12 -12 -12 -12 -12 -12 -12 -12 -12 -12 -12 -12 -12 -12 -12 -12 -12 -12 -12 -12 -12 -12 -12 -12 -12 -12 -12 -12 -11 -11 -11 -11 -11 -11 -11 -12 -12 -12 -12 -12 -12 -12
-13 -13 -13 -12 -12 -13 -12 -12 -12 -12 -12 -12 -12 -12 -12 -12 -12 -12 -12 -12 -12 -12 -12 -12 -12 -12 -12 -13 -13 -12 -12 -12 -12 -12 -12 -12 -12 -12 -12 -12 -12 -12 -12 -12 -12 -12 -12 -12 -12
-12 -13 -13 -13 -12 -12 -12 -12 -12 -12 -12 -12 -12 -12 -12 -12 -12 -12 -12 -12 -12 -12 -12 -12 -12 -12 -12 -12 -13 -13 -12 -12 -12 -11 -12 -12 -12 -12 -12 -12 -12 -12 -12 -12 -12 -12 -12 -12 -12
-13 -13 -13 -12 -12 -12 -12 -13 -13 -13 -13 -13 -13 -13 -14 -14 -13 -13 -12 -12 -11 -12 -12 -12 -12 -12 -12 -12 -12 -12 -12 -12 -11 -12 -12 -12 -12 -12 -13 -12 -12 -12 -12 -12 -12 -12 -12 -13 -13
-13 -13 -12 -12 -13 -13 -13 -13 -13 -14 -16 -17 -18 -18 -19 -19 -19 -19 -18 -16 -14 -13 -12 -13 -13 -12 -12 -12 -13 -13 -12 -13 -12 -11 -11 -11 -12 -12 -13 -13 -13 -13 -12 -13 -13 -13 -13 -13 -13
-13 -12 -13 -13 -13 -13 -13 -14 -18 -20 -19 -19 -19 -20 -19 -19 -19 -19 -19 -19 -19 -17 -15 -14 -13 -14 -13 -13 -13 -13 -12 -12 -13 -12 -11 -11 -11 -12 -13 -13 -13 -13 -13 -13 -13 -13 -13 -13 -13
-13 -13 -14 -14 -13 -14 -17 -20 -20 -20 -20 -19 -19 -19 -19 -19 -19 -20 -19 -20 -20 -20 -19 -17 -15 -14 -14 -13 -13 -13 -12 -12 -13 -12 -11 -12 -12 -11 -12 -12 -13 -13 -13 -13 -13 -13 -13 -13 -13
-13 -14 -14 -14 -17 -19 -20 -19 -20 -20 -20 -20 -20 -20 -20 -20 -20 -20 -20 -20 -20 -20 -20 -20 -18 -15 -14 -14 -13 -13 -13 -12 -12 -12 -12 -12 -12 -12 -12 -12 -12 -13 -13 -13 -13 -13 -13 -13 -13
-14 -14 -15 -18 -19 -19 -20 -20 -20 -19 -20 -20 -20 -20 -20 -20 -20 -20 -20 -20 -20 -20 -19 -20 -20 -19 -16 -15 -14 -14 -13 -13 -12 -12 -12 -13 -12 -12 -12 -12 -12 -13 -12 -12 -12 -12 -13 -13 -13
-14 -15 -17 -19 -19 -19 -19 -19 -19 -19 -19 -19 -20 -21 -20 -19 -20 -20 -20 -20 -20 -20 -20 -20 -20 -20 -18 -16 -15 -14 -14 -13 -13 -12 -13 -12 -12 -12 -12 -12 -12 -13 -12 -12 -12 -13 -13 -13 -13
-15 -16 -17 -18 -18 -19 -19 -19 -19 -20 -19 -19 -20 -20 -20 -20 -20 -20 -20 -20 -20 -20 -20 -20 -20 -20 -19 -17 -15 -14 -14 -14 -13 -13 -12 -13 -13 -12 -12 -12 -12 -12 -12 -12 -12 -13 -12 -13 -13
-16 -18 -18 -19 -19 -19 -19 -20 -19 -19 -19 -20 -21 -21 -21 -20 -20 -19 -20 -20 -20 -20 -20 -20 -20 -20 -21 -18 -16 -15 -14 -14 -14 -14 -13 -14 -13 -12 -13 -13 -12 -12 -12 -13 -13 -13 -13 -13 -13
-17 -18 -19 -19 -19 -18 -18 -19 -19 -19 -20 -20 -20 -21 -19 -19 -19 -19 -19 -20 -20 -20 -20 -20 -19 -20 -21 -20 -17 -15 -14 -14 -14 -14 -15 -14 -14 -13 -13 -13 -13 -13 -12 -13 -13 -13 -13 -13 -13
-17 -19 -19 -19 -19 -19 -18 -20 -19 -19 -19 -19 -20 -20 -20 -19 -19 -20 -20 -20 -21 -20 -20 -20 -19 -20 -21 -22 -18 -16 -15 -15 -15 -14 -14 -14 -14 -14 -14 -12 -13 -13 -13 -13 -13 -13 -13 -14 -14
-17 -19 -19 -19 -20 -20 -19 -20 -20 -20 -19 -20 -20 -20 -20 -19 -19 -20 -21 -21 -20 -20 -20 -19 -20 -20 -22 -22 -20 -17 -15 -15 -14 -14 -14 -15 -13 -15 -14 -14 -13 -14 -14 -14 -14 -13 -14 -14 -14
-18 -19 -19 -19 -19 -20 -20 -20 -20 -20 -21 -21 -20 -20 -21 -20 -20 -20 -21 -20 -20 -20 -20 -20 -20 -21 -22 -23 -21 -18 -16 -15 -15 -15 -14 -15 -15 -14 -14 -15 -14 -15 -14 -14 -15 -14 -13 -14 -14
Height
5752 5756 5760 5765 5772 5774 5779 5782 5783 5783 5785 5783 5787 5789 5791 5793 5792 5794 5794 5793 5794 5793 5795 5794 5797 5798 5799 5801 5802 5804 5805 5806 5808 5809 5810 5811 5813 5813 5814 5814 5815 5816 5816 5817 5818 5819 5820 5820 5821
5748 5752 5757 5760 5767 5772 5777 5776 5777 5775 5778 5783 5783 5784 5788 5788 5789 5789 5792 5792 5790 5791 5791 5791 5793 5794 5796 5797 5799 5801 5801 5802 5804 5806 5807 5809 5810 5811 5812 5812 5811 5812 5813 5814 5815 5816 5817 5818 5819
5746 5749 5755 5758 5765 5770 5773 5770 5770 5771 5775 5779 5780 5782 5783 5783 5783 5785 5787 5787 5788 5788 5788 5788 5788 5790 5791 5793 5795 5797 5799 5800 5801 5803 5805 5805 5806 5808 5809 5809 5809 5809 5809 5810 5812 5813 5814 5815 5816
5745 5748 5752 5757 5763 5766 5768 5767 5767 5769 5771 5775 5776 5778 5779 5780 5780 5781 5782 5783 5783 5784 5785 5783 5785 5785 5785 5788 5790 5792 5795 5796 5797 5799 5801 5802 5804 5805 5806 5807 5807 5807 5807 5807 5809 5810 5811 5812 5813
5751 5747 5752 5756 5761 5763 5765 5764 5764 5765 5767 5770 5771 5772 5771 5775 5775 5776 5777 5778 5779 5780 5781 5780 5781 5781 5782 5783 5784 5785 5789 5791 5793 5794 5796 5798 5799 5801 5802 5803 5805 5805 5806 5805 5806 5807 5808 5809 5810
5754 5753 5752 5755 5758 5760 5761 5761 5762 5762 5763 5764 5765 5767 5765 5770 5769 5770 5772 5773 5774 5773 5775 5775 5776 5777 5778 5779 5781 5781 5782 5785 5788 5789 5790 5792 5794 5796 5797 5799 5800 5801 5802 5803 5804 5804 5804 5805 5806
5755 5755 5754 5756 5758 5756 5756 5756 5754 5757 5757 5758 5760 5761 5758 5761 5761 5762 5765 5766 5768 5768 5770 5770 5770 5772 5772 5773 5775 5778 5778 5778 5782 5784 5786 5787 5788 5791 5792 5794 5795 5796 5797 5798 5800 5801 5802 5802 5801
5755 5754 5754 5753 5753 5753 5754 5755 5755 5754 5755 5755 5754 5752 5752 5755 5754 5755 5756 5758 5761 5763 5764 5766 5765 5766 5767 5768 5768 5770 5773 5774 5775 5777 5780 5781 5783 5785 5787 5788 5789 5791 5793 5793 5795 5796 5797 5798 5798
5754 5754 5753 5753 5753 5753 5752 5751 5753 5753 5752 5751 5749 5749 5749 5749 5747 5748 5749 5751 5753 5756 5756 5758 5760 5760 5760 5762 5763 5763 5766 5768 5769 5771 5775 5776 5778 5780 5781 5783 5784 5786 5788 5790 5791 5792 5793 5793 5793
5754 5754 5754 5753 5751 5751 5750 5751 5749 5749 5747 5746 5743 5743 5744 5743 5741 5742 5743 5744 5744 5746 5748 5749 5751 5754 5754 5755 5757 5759 5761 5764 5766 5766 5769 5772 5772 5776 5777 5778 5779 5780 5783 5785 5786 5786 5787 5787 5788
5753 5753 5751 5750 5750 5748 5747 5745 5744 5742 5741 5739 5737 5734 5733 5735 5734 5733 5734 5734 5735 5738 5738 5741 5742 5744 5746 5747 5750 5752 5755 5757 5759 5762 5763 5764 5767 5769 5770 5773 5774 5774 5777 5779 5779 5781 5781 5781 5782
5749 5747 5746 5745 5744 5742 5741 5739 5736 5734 5734 5733 5731 5730 5727 5726 5728 5726 5727 5727 5727 5727 5729 5731 5732 5734 5736 5737 5740 5743 5746 5748 5751 5753 5756 5758 5760 5762 5765 5767 5767 5769 5769 5773 5774 5774 5776 5777 5777
5745 5743 5740 5738 5736 5734 5733 5731 5728 5728 5726 5724 5722 5721 5719 5717 5715 5716 5717 5716 5716 5717 5718 5720 5721 5723 5727 5728 5729 5733 5737 5741 5743 5746 5748 5751 5754 5757 5757 5760 5760 5763 5765 5766 5768 5769 5769 5771 5772
5741 5739 5736 5732 5730 5727 5725 5722 5718 5716 5715 5713 5710 5709 5706 5705 5705 5705 5703 5704 5705 5706 5706 5708 5710 5711 5714 5715 5720 5723 5726 5731 5734 5737 5740 5742 5745 5749 5750 5752 5754 5757 5758 5760 5761 5763 5764 5765 5766
5738 5735 5731 5727 5724 5719 5717 5714 5709 5704 5701 5699 5695 5692 5691 5689 5687 5687 5689 5688 5690 5691 5694 5695 5697 5700 5701 5702 5707 5713 5717 5720 5723 5727 5731 5733 5736 5739 5743 5744 5746 5750 5751 5752 5755 5756 5757 5759 5759
5733 5730 5726 5720 5717 5712 5709 5706 5699 5696 5690 5684 5680 5677 5674 5671 5669 5669 5668 5670 5672 5673 5676 5679 5682 5685 5689 5691 5693 5697 5704 5709 5712 5716 5720 5723 5726 5728 5732 5734 5738 5741 5742 5745 5747 5749 5751 5751 5751
5727 5723 5719 5715 5710 5705 5699 5695 5685 5680 5675 5669 5664 5658 5653 5650 5647 5645 5644 5645 5648 5652 5655 5660 5663 5668 5672 5677 5681 5684 5689 5695 5699 5703 5707 5712 5714 5718 5722 5726 5730 5731 5733 5736 5738 5740 5742 5743 5744
5720 5716 5711 5705 5700 5695 5688 5682 5670 5663 5655 5647 5641 5634 5629 5625 5621 5618 5617 5618 5620 5624 5631 5636 5642 5648 5653 5660 5666 5670 5676 5684 5683 5687 5695 5700 5704 5707 5712 5716 5721 5722 5725 5727 5730 5732 5734 5735 5737
5712 5707 5702 5697 5688 5681 5671 5661 5649 5642 5633 5629 5623 5618 5613 5608 5604 5599 5594 5591 5591 5595 5601 5610 5617 5625 5632 5640 5649 5656 5662 5667 5671 5677 5685 5689 5689 5693 5699 5705 5710 5713 5716 5719 5721 5722 5724 5727 5729
5703 5696 5691 5686 5675 5661 5651 5638 5629 5624 5623 5620 5615 5610 5605 5600 5594 5588 5582 5576 5571 5569 5572 5580 5591 5600 5609 5619 5628 5638 5646 5654 5660 5664 5670 5676 5670 5682 5688 5692 5700 5702 5705 5708 5711 5714 5716 5717 5719
5695 5688 5680 5667 5659 5640 5629 5628 5623 5619 5616 5612 5606 5599 5593 5586 5580 5574 5568 5561 5556 5553 5550 5552 5560 5572 5584 5595 5607 5619 5630 5639 5647 5650 5657 5664 5668 5673 5675 5681 5689 5692 5695 5698 5702 5703 5705 5707 5707
5688 5679 5667 5654 5641 5633 5627 5624 5621 5616 5610 5604 5598 5589 5580 5571 5565 5558 5552 5546 5540 5537 5534 5532 5535 5545 5558 5571 5585 5599 5611 5622 5633 5640 5647 5652 5656 5663 5669 5672 5677 5682 5685 5687 5690 5692 5695 5697 5698
5679 5668 5656 5646 5639 5635 5627 5620 5618 5611 5604 5597 5589 5577 5568 5558 5550 5542 5536 5529 5523 5518 5517 5517 5516 5520 5531 5546 5562 5576 5591 5605 5620 5627 5633 5640 5646 5653 5658 5662 5666 5671 5675 5677 5681 5683 5685 5687 5690
5670 5660 5650 5644 5638 5632 5624 5617 5612 5604 5596 5589 5580 5569 5559 5549 5540 5531 5524 5516 5509 5503 5498 5498 5500 5502 5508 5522 5539 5556 5573 5586 5602 5610 5615 5626 5633 5641 5646 5653 5657 5662 5665 5670 5674 5675 5676 5679 5682
5663 5654 5648 5641 5632 5627 5619 5612 5605 5598 5590 5580 5571 5559 5547 5536 5526 5517 5507 5501 5494 5488 5482 5478 5480 5486 5488 5501 5519 5537 5553 5568 5583 5597 5603 5610 5620 5629 5637 5641 5647 5652 5657 5662 5663 5666 5667 5669 5672
5658 5649 5642 5634 5628 5623 5618 5608 5600 5592 5582 5572 5561 5549 5538 5524 5512 5502 5494 5486 5477 5470 5465 5461 5459 5467 5471 5480 5501 5519 5535 5552 5567 5580 5593 5599 5609 5618 5626 5631 5637 5640 5647 5651 5655 5657 5657 5659 5662
5653 5646 5640 5632 5624 5614 5608 5602 5593 5583 5575 5566 5555 5539 5522 5507 5493 5482 5478 5469 5459 5451 5444 5442 5442 5448 5456 5462 5481 5502 5520 5538 5554 5567 5581 5590 5600 5607 5614 5621 5625 5629 5629 5641 5644 5648 5648 5652 5653
5648 5641 5636 5629 5618 5609 5603 5597 5585 5579 5568 5558 5543 5529 5513 5496 5483 5471 5463 5452 5439 5428 5423 5424 5426 5433 5442 5450 5464 5487 5507 5526 5541 5556 5570 5583 5592 5598 5609 5613 5619 5616 5623 5630 5631 5638 5638 5641 5643
5644 5637 5633 5627 5620 5610 5597 5596 5582 5573 5561 5548 5538 5523 5503 5488 5476 5464 5451 5435 5422 5412 5410 5413 5415 5423 5432 5442 5453 5474 5495 5513 5530 5547 5559 5574 5573 5585 5597 5603 5607 5606 5617 5622 5626 5627 5629 5631 5632
5638 5631 5629 5623 5615 5607 5598 5592 5577 5567 5559 5546 5534 5515 5497 5479 5468 5456 5441 5428 5417 5409 5406 5406 5411 5420 5428 5438 5449 5466 5486 5505 5522 5536 5549 5561 5570 5577 5575 5587 5599 5603 5609 5613 5615 5617 5620 5622 5621
Wind_Speed
37 34 35 35 36 33 29 30 29 33 34 36 32 29 25 24 24 26 23 23 21 18 18 19 19 19 20 22 24 23 23 23 21 19 17 17 17 17 16 16 16 16 16 15 15 15 16 16 17
24 25 27 32 31 24 22 28 30 35 37 32 32 30 27 25 25 25 24 24 23 20 19 20 21 21 21 23 25 25 26 25 24 21 19 18 18 18 17 17 17 17 16 16 16 16 17 18 18
21 21 23 27 20 17 18 28 33 33 31 31 31 29 29 31 28 27 27 26 25 25 22 20 23 25 24 24 25 28 28 27 26 24 22 22 21 21 20 19 19 19 18 17 18 17 18 18 19
16 20 20 22 17 19 23 28 31 32 31 31 31 30 31 30 31 30 30 28 27 28 26 24 24 25 27 27 26 26 29 29 28 27 25 24 23 22 22 22 21 21 20 19 18 18 19 19 19
12 14 22 23 18 21 25 29 29 29 30 29 29 31 33 30 32 33 32 29 29 27 28 27 27 26 26 29 29 28 29 31 31 30 28 26 26 25 24 23 23 22 21 20 20 19 19 19 20
11 7 10 10 22 25 16 31 32 24 24 29 32 32 35 30 33 34 33 33 31 30 29 29 31 30 29 28 30 30 30 31 33 33 31 29 28 27 26 25 24 23 22 21 20 19 20 20 22
8 6 3 2 7 6 9 11 26 26 40 30 37 37 46 34 35 36 35 35 36 33 31 31 32 33 32 31 30 31 31 31 32 34 33 32 31 29 28 27 27 25 23 22 21 22 23 23 24
12 11 7 9 10 11 13 13 13 16 21 21 22 25 27 40 38 39 39 38 41 37 34 34 36 34 35 35 34 32 32 32 33 34 33 33 32 30 29 28 28 28 26 25 25 26 27 28 28
13 12 12 11 10 10 14 19 17 18 22 25 26 28 29 26 29 48 42 43 42 42 42 40 38 38 37 38 38 36 35 34 33 34 32 33 31 31 30 30 30 29 28 28 29 30 30 31 30
13 15 13 13 14 16 16 16 20 21 22 23 28 30 28 27 32 32 40 49 48 46 46 46 44 40 41 40 40 41 39 36 34 34 33 34 33 32 32 32 32 32 30 30 31 30 30 30 30
16 15 16 18 19 20 23 25 23 23 23 27 29 30 31 29 36 38 40 41 38 53 47 47 51 47 46 43 44 44 43 40 38 37 36 37 36 33 34 34 34 34 32 30 31 30 30 30 30
21 22 22 23 24 26 27 28 29 31 29 30 33 33 36 36 33 36 40 44 45 46 44 57 58 53 51 50 48 46 45 45 44 41 40 39 37 35 36 36 37 36 35 31 30 31 30 30 28
24 27 29 30 31 32 33 33 35 34 36 36 38 39 41 41 43 42 42 42 45 50 51 52 51 59 55 53 50 50 48 48 47 46 44 43 41 38 39 40 40 37 38 34 32 32 32 31 30
28 30 32 34 37 38 40 40 41 42 42 44 47 49 50 51 51 51 52 50 50 49 51 55 55 56 54 49 52 54 52 50 50 48 48 48 46 44 42 43 42 39 39 39 36 34 34 33 33
31 32 35 37 40 41 41 43 46 50 53 54 57 59 60 62 63 62 60 60 59 57 55 54 58 59 60 57 53 54 55 56 53 53 50 51 50 49 47 47 45 42 42 41 40 38 35 35 35
32 35 37 42 41 43 44 46 52 55 58 62 64 66 67 69 71 72 72 70 68 68 66 63 60 61 63 61 60 57 57 57 61 57 55 54 53 52 51 51 49 47 46 45 43 42 40 37 36
35 37 39 40 42 45 52 53 59 62 65 67 70 72 76 78 79 80 81 82 80 76 74 72 69 65 65 65 63 61 59 60 64 62 61 60 57 54 52 51 48 48 49 47 45 44 42 39 38
37 39 41 46 50 53 58 62 69 71 75 77 78 77 74 75 78 82 85 88 88 86 81 78 76 74 71 68 66 65 64 68 56 61 65 64 63 56 55 52 49 49 48 47 46 45 43 43 41
38 41 46 51 58 61 67 72 76 73 63 52 47 44 41 41 41 41 46 62 78 86 86 83 82 80 78 74 72 63 66 64 63 57 53 56 60 60 58 57 54 51 49 48 48 49 47 45 43
43 47 53 59 67 72 73 69 44 34 27 31 31 34 39 43 45 46 47 44 47 56 75 84 85 85 84 80 75 74 67 67 66 59 62 56 48 62 61 58 54 53 52 51 51 50 49 47 47
46 52 59 69 73 70 47 24 24 32 38 40 41 43 45 47 47 50 51 52 51 49 51 72 84 89 88 86 81 76 76 62 69 65 70 55 61 58 52 60 61 55 55 53 51 54 53 51 53
50 57 66 69 49 29 28 28 33 35 35 38 41 44 45 46 47 48 49 51 53 50 50 48 72 87 92 90 86 80 77 75 66 68 67 58 58 60 61 63 61 60 55 58 58 59 57 53 51
53 62 60 35 27 28 31 34 28 32 32 36 44 48 46 47 47 47 47 50 57 58 53 50 50 73 90 92 89 84 80 77 69 60 69 66 58 54 61 62 60 62 58 57 53 61 55 48 51
56 55 37 22 28 28 31 30 31 29 35 44 52 51 46 43 40 39 39 41 42 46 60 59 52 52 77 91 91 87 81 80 74 55 54 69 67 55 58 68 53 62 59 55 51 52 51 51 47
55 45 28 30 33 34 29 30 32 33 39 47 53 54 54 49 46 46 42 39 43 45 44 57 56 50 57 86 90 89 83 81 80 76 46 54 69 60 55 44 57 49 45 51 52 47 54 56 45
46 33 30 33 36 35 25 31 36 36 44 48 57 58 57 51 49 46 45 50 46 47 44 44 56 50 52 71 88 89 85 82 81 78 78 51 47 44 54 52 49 35 43 42 44 45 33 41 39
43 27 28 34 37 41 38 36 38 42 48 51 57 59 62 58 53 49 44 50 53 54 49 40 45 45 47 55 83 88 86 80 78 79 73 62 66 42 34 38 35 37 33 39 46 40 41 42 35
43 29 30 34 40 44 43 42 43 44 48 53 55 62 59 53 50 37 42 49 50 47 40 34 36 38 42 52 68 82 84 78 76 74 70 46 56 74 55 38 41 35 38 41 37 47 37 34 38
47 30 27 32 35 40 48 42 43 44 52 54 53 60 60 52 43 43 43 40 35 26 22 25 28 33 37 47 56 73 81 77 72 68 70 68 39 53 61 65 58 39 45 48 45 44 36 33 44
44 30 25 32 38 41 46 42 44 47 47 48 52 57 63 49 37 44 42 34 26 16 14 14 20 26 33 40 44 64 73 73 67 65 64 64 67 53 37 52 49 53 50 58 53 47 39 40 36
Wind_Direction
249 249 244 238 237 242 243 239 236 238 241 239 237 233 234 234 233 234 226 225 225 225 228 217 221 216 218 219 215 215 210 212 213 219 225 231 228 228 226 225 232 231 231 234 232 235 237 242 246
242 244 239 230 233 237 234 233 233 237 238 242 241 240 238 237 237 238 241 237 230 230 228 225 219 220 217 221 219 218 215 214 219 224 228 231 238 234 232 231 231 234 234 236 238 238 239 240 241
232 229 245 224 222 228 223 229 231 237 241 244 246 245 244 242 243 245 244 242 242 233 234 234 224 220 219 221 222 223 223 221 223 225 231 233 236 239 238 236 237 236 234 236 240 241 240 239 241
210 200 196 207 209 222 234 236 239 243 246 247 249 247 248 246 247 249 250 253 244 236 233 235 236 226 221 222 223 227 228 228 226 227 228 234 238 241 244 246 244 244 241 238 240 240 242 243 244
16 212 214 200 209 222 240 241 240 245 251 252 252 251 249 246 247 248 249 250 242 244 240 238 239 236 230 225 225 225 228 228 228 228 229 233 236 240 244 247 250 249 249 244 241 240 242 244 248
41 61 38 214 229 240 264 256 243 244 253 254 247 251 251 248 248 248 247 248 241 241 240 241 240 238 236 232 232 229 229 231 233 232 232 235 237 237 242 247 247 247 244 244 243 242 242 244 252
12 25 16 270 236 235 284 299 253 256 239 260 256 255 249 240 244 247 247 246 242 244 245 239 241 241 238 235 234 235 233 231 236 237 236 237 238 241 243 246 247 243 239 240 241 245 249 251 255
359 354 339 314 303 297 291 278 276 269 271 274 273 281 280 247 240 240 241 244 249 245 245 245 241 240 241 241 233 232 235 233 231 237 237 238 238 238 242 245 244 241 240 239 243 249 254 259 262
355 354 346 332 317 302 294 291 289 281 273 273 274 271 264 271 264 237 242 246 247 243 247 246 243 241 241 241 242 235 233 234 233 234 237 238 240 240 241 241 241 242 244 249 253 256 259 261 260
343 334 328 322 317 312 308 300 296 291 291 284 275 274 276 273 266 263 250 247 247 246 245 248 248 245 244 242 242 243 241 237 237 237 237 242 240 243 245 242 242 244 247 254 257 257 259 258 259
323 317 316 313 310 306 303 300 297 295 290 284 289 285 280 273 267 262 263 264 260 247 243 246 249 246 245 243 243 243 243 240 238 238 238 240 242 241 242 243 244 248 255 257 257 259 257 257 258
317 315 312 309 308 305 302 299 297 295 290 284 284 281 282 280 273 272 268 264 262 261 258 245 244 245 245 242 241 240 240 242 239 237 239 241 241 240 242 241 244 250 255 260 262 258 260 261 259
314 311 309 307 307 307 303 296 292 290 290 289 286 283 281 279 279 274 269 267 263 260 259 259 254 246 243 241 237 240 240 240 242 241 240 241 243 241 241 242 244 248 256 258 261 261 259 259 262
309 305 302 301 301 300 299 297 294 290 287 289 288 286 283 279 276 274 273 268 265 262 259 257 256 258 250 240 241 242 240 239 242 242 240 240 241 242 241 243 247 247 253 257 257 260 262 262 261
304 303 300 300 301 300 298 298 293 292 291 288 286 284 282 280 277 274 269 268 266 264 261 259 255 253 256 254 243 235 243 242 239 241 240 241 241 242 243 245 246 248 252 255 258 259 261 262 262
306 305 304 303 302 300 298 295 292 290 288 286 283 279 276 274 272 271 269 266 264 263 261 259 254 251 250 252 255 249 235 240 242 240 242 241 241 242 241 244 246 248 251 254 256 259 262 261 260
309 308 304 301 299 299 299 298 295 293 290 287 285 283 281 278 274 270 267 266 264 261 258 256 255 251 247 246 248 251 248 240 243 245 244 242 239 242 244 244 245 247 250 252 253 255 258 259 261
311 308 306 306 306 304 301 300 297 295 294 292 290 287 282 278 274 271 267 264 262 259 255 251 250 248 245 243 243 244 247 243 240 230 242 246 242 241 242 244 245 247 249 252 254 255 257 259 262
312 312 311 310 308 306 306 303 298 295 291 290 292 293 294 294 291 289 284 275 261 255 253 247 243 242 243 240 239 241 242 245 237 239 245 243 238 242 241 242 242 244 247 250 252 254 258 260 263
319 317 314 314 313 310 308 303 298 298 308 309 298 290 292 293 292 293 288 288 283 264 252 243 239 237 237 238 235 234 237 239 242 239 234 231 235 250 238 240 241 245 247 247 249 256 257 258 261
319 319 319 320 320 314 311 328 324 319 318 317 312 309 306 300 296 293 290 287 286 281 269 244 235 232 233 234 234 231 231 233 240 234 229 229 235 239 238 246 244 243 248 253 252 252 254 256 256
323 325 327 325 326 345 342 335 319 319 321 318 313 308 303 297 293 287 283 280 278 275 273 270 241 230 228 230 231 230 228 229 235 240 237 240 237 237 242 251 252 243 244 249 253 256 258 259 262
329 331 332 335 350 343 324 319 321 323 323 326 325 319 308 300 297 295 292 286 278 276 269 266 261 239 228 225 227 227 227 226 228 237 236 243 234 242 240 247 254 249 244 253 248 262 266 261 265
334 336 334 334 329 336 332 325 324 326 328 323 327 329 315 304 298 298 297 296 294 287 274 268 260 253 234 224 223 226 224 223 220 224 236 242 238 234 242 243 243 245 245 251 258 260 259 262 265
338 335 325 326 332 338 333 323 325 328 328 328 325 332 327 313 303 304 299 299 301 294 283 268 265 253 242 227 220 222 222 222 220 219 223 223 233 235 229 241 238 242 247 246 260 254 261 259 252
340 329 329 331 333 332 332 333 328 328 332 331 331 326 327 321 307 299 293 299 297 297 291 270 261 250 245 230 220 219 220 221 221 221 229 233 229 234 244 237 235 235 239 247 257 261 267 253 262
340 323 326 329 333 334 338 340 329 335 334 332 330 331 329 324 317 298 296 299 297 293 286 265 258 248 240 228 219 216 219 220 221 223 222 226 231 219 239 224 224 235 245 255 252 249 256 262 268
336 322 325 335 336 336 336 346 334 333 334 332 336 336 332 332 328 322 308 306 300 291 276 257 253 235 232 225 214 213 216 218 220 222 223 224 233 239 245 243 232 249 240 247 262 257 267 255 269
337 324 320 329 332 334 335 351 333 335 336 337 337 337 338 331 330 327 328 322 312 300 279 253 240 223 222 218 206 209 211 216 218 219 223 222 218 227 236 244 244 253 240 249 256 259 265 273 267
338 328 317 326 331 337 336 351 338 340 337 335 339 349 343 334 337 340 341 335 330 317 287 250 204 216 208 207 203 204 208 213 216 218 221 224 228 224 227 230 242 241 242 247 248 260 267 271 278